FW4655 Weather Reports


time (UTC)temp
C
wind
direction
speed
KPH
gust
KPH
rain 1hr
cm
rain 24hr
cm
rain mn
cm
humidity
%
barometer
mb
20260901063503 18 257 4.8 11.3 0.00 0.00 0.00 69 1010.0
20260901063012 18 296 1.6 9.7 0.00 0.00 0.00 68 1009.9
20260901062505 18 276 3.2 11.3 0.00 0.00 0.00 68 1009.8
20260901062003 19 297 4.8 11.3 0.00 0.00 0.00 68 1009.8
20260901061506 19 276 4.8 14.5 0.00 0.00 0.00 67 1009.7
20260901061005 19 307 4.8 14.5 0.00 0.00 0.00 67 1009.7
20260901060506 19 316 3.2 16.1 0.00 0.00 0.00 66 1009.6
20260901060007 20 303 6.4 16.1 0.00 0.00 0.00 65 1009.5
20260901055506 20 290 3.2 11.3 0.00 0.00 0.00 65 1009.5
20260901055006 20 326 4.8 9.7 0.00 0.00 0.00 64 1009.5
20260901054507 20 287 4.8 14.5 0.00 0.00 0.00 64 1009.5
20260901054007 20 300 4.8 14.5 0.00 0.00 0.00 63 1009.5
20260901053504 20 285 1.6 8.0 0.00 0.00 0.00 63 1009.5
20260901053007 21 285 3.2 8.0 0.00 0.00 0.00 62 1009.4
20260901052506 21 274 1.6 4.8 0.00 0.00 0.00 62 1009.4
20260901052007 21 286 1.6 4.8 0.00 0.00 0.00 61 1009.4
20260901051506 21 287 1.6 4.8 0.00 0.00 0.00 61 1009.4
20260901051006 21 289 1.6 4.8 0.00 0.00 0.00 61 1009.3
20260901050504 21 282 1.6 8.0 0.00 0.00 0.00 60 1009.2
20260901050008 21 289 3.2 8.0 0.00 0.00 0.00 60 1009.2
20260901045506 21 296 1.6 4.8 0.00 0.00 0.00 61 1009.2
20260901045010 21 316 0.0 0.0 0.00 0.00 0.00 61 1009.1
20260901044513 20 75 0.0 0.0 0.00 0.00 0.00 62 1009.0
20260901044007 20 275 0.0 0.0 0.00 0.00 0.00 62 1009.0
20260901043506 20 275 0.0 0.0 0.00 0.00 0.00 62 1008.9
20260901043014 20 275 0.0 0.0 0.00 0.00 0.00 62 1008.7
20260901042513 20 275 0.0 0.0 0.00 0.00 0.00 61 1008.7
20260901042007 21 276 0.0 0.0 0.00 0.00 0.00 61 1008.6
20260901041508 21 275 0.0 0.0 0.00 0.00 0.00 61 1008.6
20260901041008 21 276 0.0 0.0 0.00 0.00 0.00 60 1008.5
20260901040507 21 276 0.0 0.0 0.00 0.00 0.00 59 1008.5
20260901040011 21 275 0.0 0.0 0.00 0.00 0.00 58 1008.3
20260901035508 22 275 0.0 0.0 0.00 0.00 0.00 57 1008.2
20260901035006 22 275 0.0 0.0 0.00 0.00 0.00 56 1008.1
20260901034513 22 276 0.0 0.0 0.00 0.00 0.00 56 1008.1
20260901034009 22 275 0.0 0.0 0.00 0.00 0.00 54 1008.1
20260901033508 23 275 0.0 0.0 0.00 0.00 0.00 54 1008.0
20260901033012 23 275 0.0 1.6 0.00 0.00 0.00 53 1008.0
20260901032508 23 275 0.0 1.6 0.00 0.00 0.00 52 1007.9
20260901032010 23 276 0.0 1.6 0.00 0.00 0.00 51 1007.9
20260901031509 24 275 0.0 0.0 0.00 0.00 0.00 50 1007.8
20260901031011 24 275 0.0 0.0 0.00 0.00 0.00 49 1007.8
20260901030509 25 275 0.0 0.0 0.00 0.00 0.00 48 1007.8
20260901030017 25 276 0.0 1.6 0.00 0.00 0.00 47 1007.8
20260901025509 25 275 0.0 4.8 0.00 0.00 0.00 47 1007.8
20260901025011 26 228 0.0 4.8 0.00 0.00 0.00 46 1007.9
20260901024513 26 288 0.0 4.8 0.00 0.00 0.00 46 1007.8
20260901024009 26 288 0.0 11.3 0.00 0.00 0.00 45 1007.9
20260901023510 26 281 1.6 11.3 0.00 0.00 0.00 44 1007.8
20260901023012 26 280 3.2 8.0 0.00 0.00 0.00 43 1007.7
20260901022509 26 218 1.6 9.7 0.00 0.00 0.00 42 1007.7
20260901022014 27 304 3.2 9.7 0.00 0.00 0.00 42 1007.7
20260901021512 27 294 3.2 8.0 0.00 0.00 0.00 41 1007.6
20260901021008 27 297 3.2 8.0 0.00 0.00 0.00 41 1007.6
20260901020513 27 322 3.2 8.0 0.00 0.00 0.00 41 1007.5
20260901020036 27 316 3.2 8.0 0.00 0.00 0.00 40 1007.6
20260901015511 27 288 3.2 12.9 0.00 0.00 0.00 40 1007.5
20260901015009 28 302 6.4 12.9 0.00 0.00 0.00 40 1007.4
20260901014516 28 322 4.8 11.3 0.00 0.00 0.00 40 1007.4
20260901014008 28 304 4.8 11.3 0.00 0.00 0.00 40 1007.4
20260901013510 28 276 1.6 8.0 0.00 0.00 0.00 40 1007.4
20260901013016 28 317 3.2 11.3 0.00 0.00 0.00 40 1007.4
20260901012513 28 321 3.2 12.9 0.00 0.00 0.00 41 1007.5
20260901012014 28 309 3.2 12.9 0.00 0.00 0.00 41 1007.5
20260901011529 28 287 4.8 12.9 0.00 0.00 0.00 41 1007.6
20260901011009 28 314 6.4 9.7 0.00 0.00 0.00 40 1007.6
20260901010512 28 290 3.2 14.5 0.00 0.00 0.00 41 1007.5
20260901010018 28 290 6.4 14.5 0.00 0.00 0.00 40 1007.5
20260901005512 28 231 6.4 14.5 0.00 0.00 0.00 40 1007.5
20260901005013 29 328 4.8 14.5 0.00 0.00 0.00 40 1007.5
20260901004522 29 285 6.4 12.9 0.00 0.00 0.00 40 1007.5
20260901004010 29 304 4.8 9.7 0.00 0.00 0.00 40 1007.6
20260901003516 30 194 1.6 11.3 0.00 0.00 0.00 40 1007.6
20260901003018 29 302 4.8 11.3 0.00 0.00 0.00 40 1007.6
20260901002511 30 264 4.8 11.3 0.00 0.00 0.00 40 1007.6
20260901002014 30 249 3.2 11.3 0.00 0.00 0.00 39 1007.6
20260901001510 30 291 3.2 11.3 0.00 0.00 0.00 39 1007.6
20260901001007 30 323 1.6 9.7 0.00 0.00 0.00 37 1007.6
20260901000506 30 289 1.6 9.7 0.00 0.00 0.00 36 1007.7
20260901000011 30 358 4.8 9.7 0.00 0.00 0.00 36 1007.7
20260831235507 30 317 3.2 9.7 0.00 0.00 0.00 35 1007.7
20260831235007 30 72 1.6 9.7 0.00 0.00 0.00 35 1007.7
20260831234510 30 48 4.8 9.7 0.00 0.00 0.00 35 1007.7
20260831234010 30 276 3.2 8.0 0.00 0.00 0.00 36 1007.7
20260831233508 30 72 1.6 9.7 0.00 0.00 0.00 36 1007.8
20260831233007 30 235 4.8 9.7 0.00 0.00 0.00 36 1007.9
20260831232504 30 61 3.2 9.7 0.00 0.00 0.00 35 1007.9
20260831232003 30 310 1.6 9.7 0.00 0.00 0.00 35 1007.9
20260831231507 30 300 3.2 9.7 0.00 0.00 0.00 36 1007.8
20260831231007 30 39 3.2 9.7 0.00 0.00 0.00 36 1007.9
20260831230509 30 266 4.8 9.7 0.00 0.00 0.00 35 1007.9
20260831230012 30 46 4.8 9.7 0.00 0.00 0.00 36 1008.0
20260831225511 30 310 3.2 11.3 0.00 0.00 0.00 37 1008.0
20260831225009 29 299 3.2 11.3 0.00 0.00 0.00 37 1008.1
20260831224512 30 304 1.6 11.3 0.00 0.00 0.00 37 1008.1
20260831224007 29 44 4.8 11.3 0.00 0.00 0.00 37 1008.2
20260831223508 29 43 6.4 11.3 0.00 0.00 0.00 37 1008.2
20260831223014 29 345 3.2 11.3 0.00 0.00 0.00 38 1008.2
20260831222511 29 285 3.2 8.0 0.00 0.00 0.00 38 1008.2
20260831222011 29 219 3.2 6.4 0.00 0.00 0.00 38 1008.3
20260831221527 28 335 1.6 6.4 0.00 0.00 0.00 38 1008.4
20260831221004 28 318 3.2 8.0 0.00 0.00 0.00 39 1008.5
20260831220507 28 291 1.6 8.0 0.00 0.00 0.00 39 1008.5
20260831220008 28 20 3.2 9.7 0.00 0.00 0.00 40 1008.6
20260831215511 28 6 4.8 12.9 0.00 0.00 0.00 40 1008.6
20260831215007 28 49 6.4 12.9 0.00 0.00 0.00 41 1008.7
20260831214517 27 88 4.8 11.3 0.00 0.00 0.00 41 1008.7
20260831214013 27 41 4.8 9.7 0.00 0.00 0.00 41 1008.8
20260831213514 28 77 4.8 9.7 0.00 0.00 0.00 41 1008.8
20260831213029 28 160 1.6 9.7 0.00 0.00 0.00 41 1008.9
20260831212512 27 42 4.8 9.7 0.00 0.00 0.00 42 1008.9
20260831212009 27 31 3.2 11.3 0.00 0.00 0.00 43 1008.9
20260831211519 27 102 4.8 11.3 0.00 0.00 0.00 42 1009.0
20260831211012 27 338 4.8 9.7 0.00 0.00 0.00 42 1009.1
20260831210512 27 48 6.4 11.3 0.00 0.00 0.00 43 1009.1
20260831210021 27 49 3.2 11.3 0.00 0.00 0.00 43 1009.1
20260831205510 27 60 4.8 9.7 0.00 0.00 0.00 42 1009.1
20260831205004 27 41 3.2 6.4 0.00 0.00 0.00 43 1009.1
20260831204513 26 181 1.6 12.9 0.00 0.00 0.00 44 1009.2
20260831204006 26 101 4.8 12.9 0.00 0.00 0.00 43 1009.3
20260831203508 26 60 1.6 8.0 0.00 0.00 0.00 44 1009.3
20260831203016 26 323 1.6 14.5 0.00 0.00 0.00 45 1009.3
20260831202509 26 36 4.8 14.5 0.00 0.00 0.00 45 1009.4
20260831202009 26 81 3.2 9.7 0.00 0.00 0.00 45 1009.4
20260831201521 26 77 6.4 9.7 0.00 0.00 0.00 46 1009.5
20260831201020 26 103 3.2 11.3 0.00 0.00 0.00 46 1009.6
20260831200512 25 84 3.2 11.3 0.00 0.00 0.00 47 1009.7
20260831200029 25 54 4.8 9.7 0.00 0.00 0.00 47 1009.7
20260831195516 25 214 3.2 8.0 0.00 0.00 0.00 48 1009.9
20260831195016 25 104 3.2 8.0 0.00 0.00 0.00 49 1010.0
20260831194535 25 82 4.8 8.0 0.00 0.00 0.00 49 1010.0
20260831194016 24 39 3.2 11.3 0.00 0.00 0.00 50 1010.0
20260831193521 24 76 3.2 11.3 0.00 0.00 0.00 50 1010.1
20260831193009 24 15 3.2 8.0 0.00 0.00 0.00 50 1010.1
20260831192510 24 72 4.8 8.0 0.00 0.00 0.00 49 1010.2
20260831192011 24 91 3.2 9.7 0.00 0.00 0.00 52 1010.3
20260831191514 23 98 3.2 9.7 0.00 0.00 0.00 51 1010.3
20260831191010 23 81 4.8 9.7 0.00 0.00 0.00 52 1010.4
20260831190513 23 103 3.2 9.7 0.00 0.00 0.00 52 1010.6
20260831190026 23 32 4.8 9.7 0.00 0.00 0.00 52 1010.7
20260831185514 23 86 3.2 8.0 0.00 0.00 0.00 52 1010.8
20260831185013 22 72 1.6 8.0 0.00 0.00 0.00 54 1010.9
20260831184534 22 93 3.2 11.3 0.00 0.00 0.00 54 1010.9
20260831184015 22 86 6.4 11.3 0.00 0.00 0.00 54 1010.9
20260831183514 22 100 0.0 8.0 0.00 0.00 0.00 54 1011.0
20260831183024 22 68 4.8 6.4 0.00 0.00 0.00 54 1011.1
20260831182516 22 91 3.2 6.4 0.00 0.00 0.00 56 1011.2
20260831182013 21 283 0.0 9.7 0.00 0.00 0.00 57 1011.2
20260831181528 21 34 1.6 9.7 0.00 0.00 0.00 57 1011.3
20260831181011 21 103 3.2 8.0 0.00 0.00 0.00 57 1011.5
20260831180512 21 314 3.2 8.0 0.00 0.00 0.00 59 1011.6
20260831180018 21 9 4.8 8.0 0.00 0.00 0.00 59 1011.6
20260831175511 21 32 3.2 8.0 0.00 0.00 0.00 57 1011.7
20260831175011 20 62 1.6 9.7 0.00 0.00 0.00 59 1011.7
20260831174527 20 110 1.6 9.7 0.00 0.00 0.00 60 1011.7
20260831174012 20 72 4.8 9.7 0.00 0.00 0.00 61 1011.7
20260831173516 20 56 3.2 8.0 0.00 0.00 0.00 61 1011.7
20260831173036 19 79 4.8 8.0 0.00 0.00 0.00 62 1011.8
20260831172516 19 49 1.6 6.4 0.00 0.00 0.00 63 1011.8
20260831172013 19 51 3.2 6.4 0.00 0.00 0.00 63 1011.9
20260831171530 18 104 3.2 8.0 0.00 0.00 0.00 63 1011.9
20260831171016 18 60 1.6 8.0 0.00 0.00 0.00 65 1011.9
20260831170516 18 85 0.0 8.0 0.00 0.00 0.00 66 1012.0
20260831170028 18 89 3.2 8.0 0.00 0.00 0.00 66 1012.1
20260831165519 18 106 4.8 8.0 0.00 0.00 0.00 66 1012.1
20260831165010 18 94 3.2 9.7 0.00 0.00 0.00 67 1012.1
20260831164521 17 90 1.6 9.7 0.00 0.00 0.00 68 1012.1
20260831164015 17 124 1.6 8.0 0.00 0.00 0.00 69 1012.1
20260831163514 17 65 1.6 8.0 0.00 0.00 0.00 69 1012.1
20260831163028 17 135 0.0 6.4 0.00 0.00 0.00 70 1012.2
20260831162518 17 105 3.2 9.7 0.00 0.00 0.00 71 1012.3
20260831162017 17 76 1.6 9.7 0.00 0.00 0.00 72 1012.3
20260831161528 16 23 3.2 4.8 0.00 0.00 0.00 73 1012.4
20260831161020 16 79 1.6 8.0 0.00 0.00 0.00 74 1012.5
20260831160520 16 101 4.8 9.7 0.00 0.00 0.00 74 1012.5
20260831160032 16 77 4.8 9.7 0.00 0.00 0.00 75 1012.5
20260831155519 15 113 3.2 8.0 0.00 0.00 0.00 76 1012.6
20260831155018 15 74 4.8 9.7 0.00 0.00 0.00 76 1012.6
20260831154553 15 98 4.8 11.3 0.00 0.00 0.00 77 1012.5
20260831154019 15 65 3.2 11.3 0.00 0.00 0.00 78 1012.5
20260831153521 15 53 3.2 11.3 0.00 0.00 0.00 78 1012.5
20260831153030 15 65 3.2 9.7 0.00 0.00 0.00 79 1012.6
20260831152513 15 338 4.8 12.9 0.00 0.00 0.00 79 1012.7
20260831152017 14 55 4.8 12.9 0.00 0.00 0.00 80 1012.8
20260831151505 14 85 3.2 9.7 0.00 0.00 0.00 81 1012.9
20260831151005 14 117 4.8 9.7 0.00 0.00 0.00 82 1013.0
20260831150506 13 57 1.6 4.8 0.00 0.00 0.00 83 1013.0
20260831150013 13 102 1.6 6.4 0.00 0.00 0.00 84 1012.9
20260831145509 13 78 0.0 6.4 0.00 0.00 0.00 86 1012.9
20260831145008 12 92 0.0 1.6 0.00 0.00 0.00 87 1012.9
20260831144522 12 144 0.0 0.0 0.00 0.00 0.00 88 1012.9
20260831144010 12 144 0.0 0.0 0.00 0.00 0.00 89 1013.0
20260831143508 12 144 0.0 0.0 0.00 0.00 0.00 90 1013.0
20260831143021 11 144 0.0 0.0 0.00 0.00 0.00 90 1012.9
20260831142511 11 144 0.0 1.6 0.00 0.00 0.00 90 1012.9
20260831142007 11 144 0.0 1.6 0.00 0.00 0.00 90 1012.9
20260831141504 11 144 0.0 0.0 0.00 0.00 0.00 90 1012.9
20260831141002 11 144 0.0 0.0 0.00 0.00 0.00 90 1012.9
20260831140504 11 144 0.0 0.0 0.00 0.00 0.00 89 1012.9
20260831140007 11 144 0.0 0.0 0.00 0.00 0.00 89 1012.9
20260831135505 11 144 0.0 0.0 0.00 0.00 0.00 89 1013.0
20260831135007 10 144 0.0 0.0 0.00 0.00 0.00 89 1013.0
20260831134507 10 144 0.0 0.0 0.00 0.00 0.00 89 1013.0
20260831134005 10 144 0.0 0.0 0.00 0.00 0.00 89 1012.9
20260831133509 10 144 0.0 0.0 0.00 0.00 0.00 89 1012.9
20260831133014 11 144 0.0 0.0 0.00 0.00 0.00 88 1012.9
20260831132510 11 144 0.0 0.0 0.00 0.00 0.00 88 1012.9
20260831132012 11 144 0.0 0.0 0.00 0.00 0.00 89 1012.9
20260831131520 11 144 0.0 0.0 0.00 0.00 0.00 88 1013.0
20260831131013 11 144 0.0 0.0 0.00 0.00 0.00 88 1013.0
20260831130516 11 144 0.0 0.0 0.00 0.00 0.00 87 1013.1
20260831130004 11 144 0.0 0.0 0.00 0.00 0.00 88 1013.1
20260831125506 11 144 0.0 0.0 0.00 0.00 0.00 88 1013.1
20260831125004 11 144 0.0 0.0 0.00 0.00 0.00 88 1013.1
20260831124509 11 143 0.0 0.0 0.00 0.00 0.00 88 1013.2
20260831124007 11 143 0.0 0.0 0.00 0.00 0.00 88 1013.2
20260831123508 11 143 0.0 0.0 0.00 0.00 0.00 88 1013.3
20260831123009 11 143 0.0 0.0 0.00 0.00 0.00 88 1013.2
20260831122507 11 143 0.0 0.0 0.00 0.00 0.00 88 1013.3
20260831122008 11 143 0.0 0.0 0.00 0.00 0.00 87 1013.3
20260831121528 11 143 0.0 0.0 0.00 0.00 0.00 87 1013.4
20260831121012 11 143 0.0 0.0 0.00 0.00 0.00 87 1013.5
20260831120518 11 143 0.0 0.0 0.00 0.00 0.00 87 1013.5
20260831120025 11 142 0.0 0.0 0.00 0.00 0.00 87 1013.5
20260831115514 11 143 0.0 0.0 0.00 0.00 0.00 87 1013.4
20260831115014 11 143 0.0 0.0 0.00 0.00 0.00 87 1013.5
20260831114530 11 143 0.0 0.0 0.00 0.00 0.00 86 1013.6
20260831114004 12 143 0.0 0.0 0.00 0.00 0.00 86 1013.6
20260831113504 12 143 0.0 0.0 0.00 0.00 0.00 86 1013.6
20260831113008 12 143 0.0 0.0 0.00 0.00 0.00 86 1013.6
20260831112506 12 143 0.0 0.0 0.00 0.00 0.00 86 1013.7
20260831112006 12 143 0.0 0.0 0.00 0.00 0.00 86 1013.7
20260831111511 12 143 0.0 0.0 0.00 0.00 0.00 86 1013.7
20260831111008 12 143 0.0 0.0 0.00 0.00 0.00 86 1013.8
20260831110510 12 143 0.0 0.0 0.00 0.00 0.00 86 1013.8
20260831110020 12 143 0.0 0.0 0.00 0.00 0.00 85 1013.8
20260831105510 12 143 0.0 0.0 0.00 0.00 0.00 86 1013.8
20260831105016 12 143 0.0 0.0 0.00 0.00 0.00 86 1013.9
20260831104524 12 150 0.0 0.0 0.00 0.00 0.00 86 1013.9
20260831104016 12 150 0.0 0.0 0.00 0.00 0.00 86 1013.9
20260831103516 12 150 0.0 0.0 0.00 0.00 0.00 86 1013.9
20260831103029 12 150 0.0 0.0 0.00 0.00 0.00 86 1014.0
20260831102514 12 150 0.0 0.0 0.00 0.00 0.00 86 1014.0
20260831102019 12 150 0.0 0.0 0.00 0.00 0.00 86 1014.0
20260831101511 12 150 0.0 0.0 0.00 0.00 0.00 85 1014.0
20260831101008 12 150 0.0 0.0 0.00 0.00 0.00 85 1014.0
20260831100507 12 150 0.0 0.0 0.00 0.00 0.00 86 1014.1
20260831100015 12 150 0.0 0.0 0.00 0.00 0.00 85 1014.1
20260831095512 12 150 0.0 0.0 0.00 0.00 0.00 85 1014.2
20260831095012 13 150 0.0 0.0 0.00 0.00 0.00 84 1014.2
20260831094523 13 150 0.0 0.0 0.00 0.00 0.00 84 1014.2
20260831094012 13 150 0.0 0.0 0.00 0.00 0.00 85 1014.3
20260831093514 13 150 0.0 0.0 0.00 0.00 0.00 84 1014.4
20260831093028 13 150 0.0 0.0 0.00 0.00 0.00 84 1014.4
20260831092515 13 150 0.0 0.0 0.00 0.00 0.00 84 1014.5
20260831092022 13 150 0.0 0.0 0.00 0.00 0.00 85 1014.5
20260831091530 13 150 0.0 0.0 0.00 0.00 0.00 84 1014.6
20260831091014 13 150 0.0 0.0 0.00 0.00 0.00 84 1014.6
20260831090516 13 150 0.0 1.6 0.00 0.00 0.00 84 1014.6
20260831090031 13 150 0.0 1.6 0.00 0.00 0.00 84 1014.6
20260831085509 13 150 0.0 0.0 0.00 0.00 0.00 83 1014.6
20260831085008 13 150 0.0 0.0 0.00 0.00 0.00 84 1014.7
20260831084528 13 150 0.0 0.0 0.00 0.00 0.00 83 1014.7
20260831084010 13 150 0.0 0.0 0.00 0.00 0.00 83 1014.8
20260831083513 13 150 0.0 0.0 0.00 0.00 0.00 82 1014.9
20260831083024 13 150 0.0 0.0 0.00 0.00 0.00 83 1014.9
20260831082514 13 150 0.0 0.0 0.00 0.00 0.00 82 1015.0
20260831082013 13 150 0.0 0.0 0.00 0.00 0.00 81 1015.1
20260831081528 14 150 0.0 0.0 0.00 0.00 0.00 81 1015.1
20260831081017 14 150 0.0 0.0 0.00 0.00 0.00 81 1015.1
20260831080517 14 150 0.0 0.0 0.00 0.00 0.00 80 1015.2
20260831080029 14 150 0.0 0.0 0.00 0.00 0.00 79 1015.2
20260831075514 15 150 0.0 0.0 0.00 0.00 0.00 79 1015.2
20260831075017 15 150 0.0 0.0 0.00 0.00 0.00 79 1015.3
20260831074540 15 150 0.0 0.0 0.00 0.00 0.00 78 1015.2
20260831074020 15 150 0.0 0.0 0.00 0.00 0.00 78 1015.3
20260831073512 15 150 0.0 0.0 0.00 0.00 0.00 78 1015.3
20260831073047 15 150 0.0 0.0 0.00 0.00 0.00 77 1015.4
20260831072515 15 150 0.0 0.0 0.00 0.00 0.00 77 1015.5
20260831072011 15 150 0.0 1.6 0.00 0.00 0.00 77 1015.5
20260831071525 16 150 0.0 1.6 0.00 0.00 0.00 77 1015.5
20260831071017 15 143 0.0 0.0 0.00 0.00 0.00 76 1015.5
20260831070514 15 143 0.0 0.0 0.00 0.00 0.00 76 1015.6
20260831070032 16 143 0.0 0.0 0.00 0.00 0.00 76 1015.7
20260831065522 16 143 0.0 1.6 0.00 0.00 0.00 75 1015.7
20260831065017 16 143 0.0 1.6 0.00 0.00 0.00 74 1015.7
20260831064538 16 143 0.0 1.6 0.00 0.00 0.00 74 1015.8
20260831064019 16 146 0.0 1.6 0.00 0.00 0.00 74 1015.7